User: anonymous   Login
Location: Aranbee
(34.0885°N, 118.2342°W)
Time: 15:06:12
(UTC+00:00)
Language:

S-56A Canister/Altair - Orbit

View from above orbital plane
View from above orbital plane
View from above satellite
View from above satellite

Ground track
Ground track

The orbit data is extracted from the following two-line orbital elements,

1    82U 61004B   20328.44092852 -.00000097 +00000-0 -34863-4 0  9996
2    82 038.8570 329.6768 1174671 130.9555 239.8926 12.26055266827325
Epoch (UTC): 23 November 2020 10:34:56
Eccentricity: 0.1174671
inclination: 38.8570°
perigee height: 633 km
apogee height: 2499 km
right ascension of ascending node: 329.6768°
argument of perigee: 130.9555°
revolutions per day: 12.26055266
mean anomaly at epoch: 239.8926°
orbit number at epoch: 82732

The dashed part of the orbit path shows where the satellite is in the earth's shadow,  

DLR